KB1JDX Weather Reports


Display with metric or nautical units.
time (UTC)temp
F
wind
direction
speed
MPH
gust
MPH
rain 1hr
in
rain 24hr
in
rain mn
in
humidity
%
barometer
mb
20260902121205 63 167 0.0 0.0 0.00 0.00 0.00 100 1021.0
20260902113206 61 167 0.0 0.0 0.00 0.00 0.00 100 1021.2
20260902113102 61 167 0.0 0.0 0.00 0.00 0.00 100 1021.1
20260902103205 60 167 0.0 0.0 0.00 0.00 0.00 100 1020.9
20260902103102 60 167 0.0 0.0 0.00 0.00 0.00 100 1020.9
20260902102130 60 167 0.0 0.0 0.00 0.00 0.00 100 1020.0
20260902101205 59 167 0.0 0.0 0.00 0.00 0.00 100 1020.7
20260902093204 59 167 0.0 0.0 0.00 0.00 0.00 100 1020.1
20260902093102 59 167 0.0 0.0 0.00 0.00 0.00 100 1020.1
20260902091205 59 167 0.0 0.0 0.00 0.00 0.00 100 1020.0
20260902083205 60 167 0.0 0.0 0.00 0.00 0.00 100 1020.0
20260902083101 60 167 0.0 0.0 0.00 0.00 0.00 100 1020.0
20260902081204 60 167 0.0 0.0 0.00 0.00 0.00 100 1020.1
20260902075204 60 167 0.0 0.0 0.00 0.00 0.00 100 1019.7
20260902073102 60 167 0.0 0.0 0.00 0.00 0.00 100 1020.0
20260902071204 61 167 0.0 0.0 0.00 0.00 0.00 100 1019.6
20260902065204 61 167 0.0 0.0 0.00 0.00 0.00 100 1019.9
20260902063205 61 167 0.0 0.0 0.00 0.00 0.00 100 1020.0
20260902063102 61 167 0.0 0.0 0.00 0.00 0.00 100 1020.0
20260902061204 60 167 0.0 0.0 0.00 0.00 0.00 100 1020.0
20260902055204 60 167 0.0 0.0 0.00 0.00 0.00 100 1019.6
20260902053204 60 167 0.0 0.0 0.00 0.00 0.00 100 1019.6
20260902053102 60 167 0.0 0.0 0.00 0.00 0.00 100 1019.6
20260902051204 60 167 0.0 0.0 0.00 0.00 0.00 100 1019.0
20260902045204 60 167 0.0 0.0 0.00 0.00 0.00 100 1019.3
20260902043204 60 167 0.0 0.0 0.00 0.00 0.00 100 1019.4
20260902043101 60 167 0.0 0.0 0.00 0.00 0.00 100 1019.3
20260902033102 61 167 0.0 0.0 0.00 0.00 0.00 100 1018.8
20260902031204 61 167 0.0 0.0 0.00 0.00 0.00 100 1018.5
20260902023204 61 167 0.0 0.0 0.00 0.00 0.00 100 1018.8
20260902023101 61 167 0.0 0.0 0.00 0.00 0.00 100 1018.7
20260902021204 61 167 0.0 0.0 0.00 0.00 0.00 100 1018.5
20260902015204 61 167 0.0 0.0 0.00 0.00 0.00 100 1018.5
20260902015101 61 167 0.0 0.0 0.00 0.00 0.00 100 1018.4
20260902013604 61 167 0.0 0.0 0.00 0.00 0.00 100 1018.5
20260902013101 61 167 0.0 0.0 0.00 0.00 0.00 100 1018.5
20260902012805 61 167 0.0 0.0 0.00 0.00 0.00 100 1018.5
20260902012404 61 167 0.0 0.0 0.00 0.00 0.00 100 1018.5
20260902012205 61 167 0.0 0.0 0.00 0.00 0.00 100 1018.5
20260902012101 61 167 0.0 0.0 0.00 0.00 0.00 100 1018.5
20260901153219 66 341 0.0 7.0 0.00 0.00 0.00 100 1016.6
20260901153114 66 59 0.0 7.0 0.00 0.00 0.00 100 1016.6
20260901151219 67 148 0.0 7.0 0.00 0.00 0.00 100 1016.8
20260901145220 67 194 0.0 0.0 0.00 0.00 0.00 100 1016.9
20260901143219 67 319 0.0 0.0 0.00 0.00 0.00 100 1016.6
20260901143114 67 319 0.0 0.0 0.00 0.00 0.00 100 1016.6
20260901141219 67 323 0.0 0.0 0.00 0.00 0.00 100 1016.9
20260901135219 67 327 0.0 0.0 0.00 0.00 0.00 100 1016.7
20260901133220 67 327 0.0 0.0 0.00 0.00 0.00 100 1016.7
20260901133114 67 327 0.0 0.0 0.00 0.00 0.00 100 1016.7
20260901131221 67 327 0.0 0.0 0.00 0.00 0.00 100 1016.7
20260901123219 67 339 0.0 0.0 0.00 0.00 0.00 100 1016.8
20260901123114 67 339 0.0 0.0 0.00 0.00 0.00 100 1016.9